This is the latest recevied weather packets stored in our database for station/object W6SNO-1. If no packets are shown the sender has not sent any weather packets the latest 10 day(s).
| Time | Temp. | Humidity | Pressure | Rain* | Wind** | Luminosity | Snow |
|---|---|---|---|---|---|---|---|
| 1787588576 | 17.78° C | 83% | 1015.3 hPa | 0 mm | - | 47 W/m² | - |
| 1787588272 | 17.78° C | 84% | 1015.3 hPa | 0 mm | - | 45 W/m² | - |
| 1787586751 | 16.11° C | 89% | 1015 hPa | 0 mm | - | 47 W/m² | - |
| 1787586447 | 16.11° C | 89% | 1015 hPa | 0 mm | - | 47 W/m² | - |
| 1787586143 | 16.11° C | 90% | 1015 hPa | 0 mm | - | 49 W/m² | - |
| 1787585839 | 16.11° C | 90% | 1015 hPa | 0 mm | - | 42 W/m² | - |
| 1787585539 | 16.11° C | 90% | 1015.2 hPa | 0 mm | - | 42 W/m² | - |
| 1787585234 | 16.11° C | 90% | 1015 hPa | 0 mm | - | 40 W/m² | - |
| 1787584933 | 15.56° C | 91% | 1015 hPa | 0 mm | - | 38 W/m² | - |
| 1787584628 | 15.56° C | 91% | 1015.1 hPa | 0 mm | - | 38 W/m² | - |
| 1787584327 | 16.11° C | 90% | 1015 hPa | 0 mm | - | 40 W/m² | - |
| 1787584026 | 16.11° C | 90% | 1015.1 hPa | 0 mm | - | 40 W/m² | - |
| 1787583722 | 16.11° C | 90% | 1014.7 hPa | 0 mm | - | 38 W/m² | - |
| 1787583421 | 15.56° C | 90% | 1014.9 hPa | 0 mm | - | 40 W/m² | - |
| 1787583120 | 15.56° C | 90% | 1014.7 hPa | 0 mm | - | 32 W/m² | - |
| 1787582815 | 15.56° C | 90% | 1014.6 hPa | 0 mm | - | 32 W/m² | - |
| 1787582510 | 15.56° C | 90% | 1014.7 hPa | 0 mm | - | 28 W/m² | - |
| 1787582205 | 15.56° C | 91% | 1014.6 hPa | 0 mm | - | 28 W/m² | - |
| 1787581905 | 15.56° C | 91% | 1014.7 hPa | 0 mm | - | 22 W/m² | - |
| 1787581601 | 15.56° C | 90% | 1014.7 hPa | 0 mm | - | 19 W/m² | - |
| 1787581300 | 16.11° C | 89% | 1014.7 hPa | 0 mm | - | 16 W/m² | - |
| 1787580995 | 15.56° C | 85% | 1014.6 hPa | 0 mm | - | 15 W/m² | - |
| 1787580691 | 15.56° C | 85% | 1014.6 hPa | 0 mm | - | 12 W/m² | - |
| 1787580387 | 15.56° C | 87% | 1014.5 hPa | 0 mm | - | 11 W/m² | - |
| 1787580082 | 15.56° C | 88% | 1014.5 hPa | 0 mm | - | 9 W/m² | - |
* Rain latest hour (hover to see other rain measurements)
** Current wind speed in m/s (hover to see current wind gust speed)